Regional Weather Roundup
Issued by NWS

Home | Current Version | Previous Version | Graphics & Text | Print | Product List | Glossary On
Versions: 1 2 3 4 5 6 7 8 9 10 11 12 13 14 15 16 17 18 19 20 21 22 23 24 25 26 27 28 29 30 31 32 33 34 35 36 37 38 39 40 41 42 43 44 45 46 47 48 49 50
000
ASUS45 KCYS 190810
RWRWY

WYOMING REGIONAL WEATHER ROUNDUP
NATIONAL WEATHER SERVICE CHEYENNE WY
200 AM MDT TUE AUG 19 2014

NOTE:  "FAIR" INDICATES FEW OR NO CLOUDS BELOW 12,000 FEET
WITH NO SIGNIFICANT WEATHER AND/OR OBSTRUCTIONS TO VISIBILITY.

WYZ001-190900-
YELLOWSTONE NATIONAL PARK

CITY           SKY/WX    TMP DP  RH WIND       PRES   REMARKS
LK YELLOWSTONE   N/A     40  37  89 NW3       30.19F
W YELLOWSTONE  NOT AVBL

$$
WYZ002>013-054>058-071-098>099-190900-
NORTHERN WYOMING

CITY           SKY/WX    TMP DP  RH WIND       PRES   REMARKS
JACKSON        PTCLDY    52  39  62 N6        30.09S
CODY           PTCLDY    61  43  51 S6        29.96F
GREYBULL       MOCLDY    63  47  55 SE7       29.89F
WORLAND        MOCLDY    60  48  64 CALM      29.90F
SHERIDAN       PTCLDY    53  48  83 CALM      29.89F
BUFFALO        PTCLDY    67  45  45 S9        29.98F
GILLETTE       CLEAR     67  50  54 S14       29.92F
HULETT         FAIR      61  50  67 MISG      29.95
NEWCASTLE      FAIR      64  46  52 MISG      29.95

$$
WYZ014>020-022>026-101>103-190900-
CENTRAL WYOMING

CITY           SKY/WX    TMP DP  RH WIND       PRES   REMARKS
BIG PINEY      PTCLDY    48  36  63 NW3       30.12F
PINEDALE       SUNNY     45  37  76 NW6       30.13S
DUBOIS         PTSUNNY   52  34  50 NW8       30.13F
LANDER         PTCLDY    64  36  35 W13       29.98F
RIVERTON       CLEAR     67  40  37 N10       29.99F
CASPER         CLEAR     57  37  47 SW8       29.98F
DOUGLAS        PTCLDY    58  48  69 CALM      29.97F

$$
WYZ021-027>030-104>119-190900-
SOUTHERN WYOMING

CITY           SKY/WX    TMP DP  RH WIND       PRES   REMARKS
EVANSTON       MOCLDY    61  32  33 W14       30.12R
KEMMERER       PTSUNNY   55  36  47 N10       30.12S
FORT BRIDGER   FAIR      58  36  42 NW3       30.12S
ROCK SPRINGS   MOCLDY    62  30  29 S8        30.08F
DIXON          FAIR      58  37  45 NE6       30.11S
RAWLINS        PTCLDY    55  34  45 S6        30.10F
SARATOGA       FAIR      57  36  44 MISG      30.12F
LARAMIE        CLEAR     56  42  59 S12       30.13F
CHEYENNE       CLEAR     60  48  64 S8        30.08F
TORRINGTON     CLEAR     59  54  83 MISG      29.94F
PINE BLUFFS    FAIR      54  50  87 S3        30.04S

$$



USA.gov is the U.S. government's official web portal to all federal, state and local government web resources and services.